Location: Leuk
(46.3174°N, 7.6341°E)
Time: 07:33:01
(UTC+00:00)

NOSS 3-4 (A) - Pass Details

Date: 09 March 2021
Orbit: 873 x 1339 km, 63.4° (Epoch: 17 April)

Event Time Altitude Azimuth Distance (km) Brightness Sun altitude
Exits shadow 04:16:35 15° 211° (SSW) 2,178 4.9 -17.5°
Maximum altitude 04:21:27 79° 126° (SE) 930 3.4 -16.7°
Drops below altitude 10° 04:27:43 10° 41° (NE) 2,719 6.6 -15.6°
Sets 04:30:25 0° 40° (NE) 3,733 7.4 -15.2°
